JES3235 SANT-SABE

Flight info

Callsign JES3235
Flight time N/A
Altitude 37000
Route PUBE4A PUBER UL550 ROS UT672 MULTA UW24 SNT SNT9R
Aircraft A320/M-SDE3FGHIRWY/LB1

Departure

Time 2026-04-28 01:28
Airport Teniente Benjamín Matienzo International Airport (SANT)

Arrival

Time N/A
Airport Aeroparque Jorge Newbery (SABE)
Time Latitude Longitude Altitude Speed Heading
2026-04-28 00:50 -26.83529 -65.10750 1492 ft 0 kts 281°
2026-04-28 01:18 -26.83531 -65.10735 1492 ft 4 kts 275°
2026-04-28 01:18 -26.83529 -65.10707 1486 ft 4 kts 240°
2026-04-28 01:18 -26.83514 -65.10692 1486 ft 1 kts 190°
2026-04-28 01:22 -26.83518 -65.10693 1484 ft 4 kts 190°
2026-04-28 01:22 -26.83571 -65.10703 1482 ft 9 kts 190°
2026-04-28 01:22 -26.83638 -65.10716 1478 ft 11 kts 190°
2026-04-28 01:22 -26.83719 -65.10732 1492 ft 12 kts 185°
2026-04-28 01:23 -26.83806 -65.10700 1482 ft 14 kts 158°
2026-04-28 01:23 -26.83902 -65.10660 1482 ft 16 kts 162°
2026-04-28 01:23 -26.84010 -65.10619 1490 ft 17 kts 160°
2026-04-28 01:23 -26.84129 -65.10569 1493 ft 19 kts 160°
2026-04-28 01:24 -26.84260 -65.10523 1481 ft 21 kts 179°
2026-04-28 01:24 -26.84409 -65.10546 1484 ft 23 kts 189°
2026-04-28 01:24 -26.84567 -65.10578 1490 ft 24 kts 191°
2026-04-28 01:24 -26.84736 -65.10612 1488 ft 25 kts 190°
2026-04-28 01:25 -26.84914 -65.10647 1490 ft 27 kts 190°
2026-04-28 01:25 -26.85108 -65.10685 1483 ft 29 kts 190°
2026-04-28 01:25 -26.85253 -65.10745 1481 ft 13 kts 226°
2026-04-28 01:25 -26.85335 -65.10779 1482 ft 11 kts 181°
2026-04-28 01:26 -26.85359 -65.10739 1483 ft 2 kts 63°
2026-04-28 01:26 -26.85342 -65.10731 1488 ft 4 kts 20°
2026-04-28 01:26 -26.85325 -65.10727 1490 ft 1 kts
2026-04-28 01:26 -26.85322 -65.10727 1492 ft 0 kts
2026-04-28 01:27 -26.85186 -65.10701 1483 ft 53 kts
2026-04-28 01:27 -26.84613 -65.10588 1493 ft 111 kts 10°
2026-04-28 01:27 -26.83697 -65.10409 1497 ft 154 kts 10°
2026-04-28 01:27 -26.82583 -65.10179 1866 ft 165 kts
2026-04-28 01:28 -26.81454 -65.09980 2505 ft 165 kts
2026-04-28 01:28 -26.80383 -65.09454 2926 ft 177 kts 42°
2026-04-28 01:28 -26.79682 -65.08255 3249 ft 195 kts 66°
2026-04-28 01:28 -26.79138 -65.06802 3588 ft 211 kts 65°
2026-04-28 01:29 -26.78326 -65.05361 3921 ft 229 kts 44°
2026-04-28 01:29 -26.77039 -65.04174 4312 ft 251 kts 35°
2026-04-28 01:29 -26.75592 -65.02996 5015 ft 260 kts 34°
2026-04-28 01:29 -26.74209 -65.01672 5873 ft 266 kts 49°
2026-04-28 01:30 -26.73383 -64.99821 6711 ft 276 kts 73°
2026-04-28 01:30 -26.73393 -64.97641 7470 ft 288 kts 102°
2026-04-28 01:30 -26.74372 -64.95658 8261 ft 298 kts 133°
2026-04-28 01:30 -26.76114 -64.94410 9075 ft 302 kts 159°
2026-04-28 01:31 -26.78102 -64.93649 9918 ft 302 kts 161°
2026-04-28 01:31 -26.80100 -64.92914 10536 ft 309 kts 162°
2026-04-28 01:31 -26.82218 -64.92136 10675 ft 331 kts 162°
2026-04-28 01:31 -26.84460 -64.91307 10990 ft 344 kts 162°
2026-04-28 01:32 -26.86749 -64.90452 11548 ft 349 kts 162°
2026-04-28 01:32 -26.89059 -64.89585 12153 ft 352 kts 163°
2026-04-28 01:32 -26.91391 -64.88707 12774 ft 354 kts 164°
2026-04-28 01:32 -26.93738 -64.87822 13391 ft 357 kts 164°
2026-04-28 01:33 -26.96072 -64.86941 13982 ft 360 kts 165°
2026-04-28 01:33 -26.98454 -64.86040 14517 ft 363 kts 165°
2026-04-28 01:33 -27.00862 -64.85131 15041 ft 366 kts 165°
2026-04-28 01:33 -27.03286 -64.84215 15559 ft 370 kts 165°
2026-04-28 01:34 -27.05737 -64.83289 16086 ft 373 kts 165°
2026-04-28 01:34 -27.08212 -64.82353 16598 ft 377 kts 165°
2026-04-28 01:34 -27.10708 -64.81411 17126 ft 381 kts 165°
2026-04-28 01:34 -27.13238 -64.80452 17646 ft 384 kts 165°
2026-04-28 01:35 -27.15780 -64.79490 18186 ft 387 kts 166°
2026-04-28 01:35 -27.18341 -64.78521 18712 ft 390 kts 166°
2026-04-28 01:35 -27.20925 -64.77543 19211 ft 393 kts 166°
2026-04-28 01:35 -27.23528 -64.76557 19715 ft 395 kts 166°
2026-04-28 01:36 -27.26144 -64.75564 20219 ft 398 kts 165°
2026-04-28 01:36 -27.28745 -64.74581 20703 ft 401 kts 165°
2026-04-28 01:36 -27.31396 -64.73577 21179 ft 403 kts 165°
2026-04-28 01:36 -27.34066 -64.72563 21651 ft 406 kts 165°
2026-04-28 01:37 -27.36753 -64.71541 22116 ft 409 kts 165°
2026-04-28 01:37 -27.39453 -64.70511 22564 ft 411 kts 165°
2026-04-28 01:37 -27.42173 -64.69473 23043 ft 413 kts 164°
2026-04-28 01:37 -27.44901 -64.68435 23518 ft 415 kts 164°
2026-04-28 01:38 -27.47642 -64.67393 23920 ft 417 kts 164°
2026-04-28 01:38 -27.50396 -64.66344 24279 ft 420 kts 165°
2026-04-28 01:38 -27.53143 -64.65167 24617 ft 425 kts 158°
2026-04-28 01:38 -27.55752 -64.63541 24947 ft 431 kts 152°
2026-04-28 01:39 -27.58339 -64.61799 25276 ft 434 kts 153°
2026-04-28 01:39 -27.60942 -64.60046 25604 ft 437 kts 153°
2026-04-28 01:39 -27.63567 -64.58282 25926 ft 440 kts 153°
2026-04-28 01:39 -27.65315 -64.57107 26153 ft 442 kts 153°
2026-04-28 01:40 -27.68861 -64.54725 26657 ft 444 kts 153°
2026-04-28 01:40 -27.71521 -64.52937 26994 ft 446 kts 153°
2026-04-28 01:40 -27.73291 -64.51747 27205 ft 448 kts 153°
2026-04-28 01:40 -27.76851 -64.49351 27634 ft 452 kts 153°
2026-04-28 01:41 -27.79562 -64.47525 27956 ft 455 kts 153°
2026-04-28 01:41 -27.81402 -64.46286 28174 ft 457 kts 153°
2026-04-28 01:41 -27.85030 -64.43845 28602 ft 460 kts 153°
2026-04-28 01:41 -27.87788 -64.41987 28921 ft 463 kts 153°
2026-04-28 01:42 -27.90573 -64.40108 29294 ft 465 kts 153°
2026-04-28 01:42 -27.93346 -64.38230 29676 ft 466 kts 153°
2026-04-28 01:42 -27.96131 -64.36341 30108 ft 465 kts 153°
2026-04-28 01:42 -27.98909 -64.34459 30501 ft 465 kts 153°
2026-04-28 01:43 -28.01689 -64.32580 30825 ft 466 kts 153°
2026-04-28 01:43 -28.03538 -64.31330 31033 ft 467 kts 154°
2026-04-28 01:43 -28.06337 -64.29436 31351 ft 468 kts 154°
2026-04-28 01:43 -28.09136 -64.27539 31673 ft 470 kts 154°
2026-04-28 01:44 -28.11941 -64.25633 31995 ft 471 kts 154°
2026-04-28 01:44 -28.14748 -64.23721 32409 ft 470 kts 154°
2026-04-28 01:44 -28.17549 -64.21815 32818 ft 469 kts 154°
2026-04-28 01:44 -28.20349 -64.19912 33177 ft 470 kts 155°
2026-04-28 01:45 -28.23160 -64.18002 33516 ft 471 kts 155°
2026-04-28 01:45 -28.25972 -64.16091 33857 ft 472 kts 155°
2026-04-28 01:45 -28.28793 -64.14174 34178 ft 473 kts 155°
2026-04-28 01:45 -28.31614 -64.12254 34449 ft 474 kts 156°
2026-04-28 01:46 -28.34441 -64.10326 34711 ft 475 kts 156°
2026-04-28 01:46 -28.37273 -64.08393 35027 ft 475 kts 155°
2026-04-28 01:46 -28.40098 -64.06461 35371 ft 473 kts 156°
2026-04-28 01:46 -28.42920 -64.04529 35649 ft 473 kts 156°
2026-04-28 01:47 -28.45706 -64.02624 35862 ft 475 kts 156°
2026-04-28 01:47 -28.48548 -64.00682 36085 ft 476 kts 156°
2026-04-28 01:47 -28.51391 -63.98741 36321 ft 477 kts 157°
2026-04-28 01:47 -28.54241 -63.96790 36555 ft 478 kts 157°
2026-04-28 01:48 -28.57090 -63.94835 36786 ft 478 kts 157°
2026-04-28 01:48 -28.59939 -63.92876 37012 ft 479 kts 157°
2026-04-28 01:48 -28.62803 -63.90908 37120 ft 482 kts 157°
2026-04-28 01:48 -28.65685 -63.88932 37139 ft 487 kts 157°
2026-04-28 01:49 -28.71518 -63.84928 37130 ft 490 kts 157°
2026-04-28 01:49 -28.77369 -63.80901 37137 ft 491 kts 157°
2026-04-28 01:50 -28.83217 -63.76863 37167 ft 491 kts 156°
2026-04-28 01:50 -28.88980 -63.72853 37131 ft 487 kts 156°
2026-04-28 01:51 -28.94773 -63.68811 37137 ft 488 kts 156°
2026-04-28 01:51 -29.00570 -63.64764 37140 ft 488 kts 156°
2026-04-28 01:52 -29.06369 -63.60729 37175 ft 488 kts 156°
2026-04-28 01:52 -29.12171 -63.56678 37169 ft 488 kts 156°
2026-04-28 01:53 -29.17957 -63.52615 37168 ft 487 kts 156°
2026-04-28 01:53 -29.23748 -63.48561 37163 ft 487 kts 156°
2026-04-28 01:54 -29.29523 -63.44508 37191 ft 487 kts 156°
2026-04-28 01:54 -29.35288 -63.40448 37169 ft 486 kts 156°
2026-04-28 01:55 -29.41015 -63.36420 37164 ft 486 kts 156°
2026-04-28 01:55 -29.46772 -63.32372 37159 ft 486 kts 156°
2026-04-28 01:56 -29.52526 -63.28300 37159 ft 485 kts 155°
2026-04-28 01:56 -29.58245 -63.24232 37157 ft 483 kts 155°